This is the latest recevied weather packets stored in our database for station/object K4PAR-1. If no packets are shown the sender has not sent any weather packets the latest 10 day(s).
| Time | Temp. | Humidity | Pressure | Rain* | Wind** | Luminosity | Snow |
|---|---|---|---|---|---|---|---|
| 1778092663 | 30.56° C | - | - | 0 mm | 1.79 m/s, 86° | - | - |
| 1778092420 | 32.22° C | - | - | 0 mm | 2.24 m/s, 75° | - | - |
| 1778092178 | 31.67° C | - | - | 0 mm | 0 m/s | - | - |
| 1778091935 | 30.56° C | - | - | 0 mm | 0 m/s | - | - |
| 1778091693 | 31.11° C | - | - | 0 mm | 0.89 m/s, 77° | - | - |
| 1778091451 | 30.56° C | - | - | 0 mm | 0 m/s | - | - |
| 1778091208 | 31.67° C | - | - | 0 mm | 0 m/s | - | - |
| 1778090966 | 32.78° C | - | - | 0 mm | 0 m/s | - | - |
| 1778090724 | 32.22° C | - | - | 0 mm | 0.45 m/s, 62° | - | - |
| 1778090481 | 32.22° C | - | - | 0 mm | 0 m/s | - | - |
| 1778090239 | 31.11° C | - | - | 0 mm | 0 m/s | - | - |
| 1778089996 | 30.56° C | - | - | 0 mm | 0.89 m/s, 70° | - | - |
| 1778089754 | 31.11° C | - | - | 0 mm | 0 m/s | - | - |
| 1778089512 | 31.11° C | - | - | 0 mm | 0 m/s | - | - |
| 1778089269 | 31.11° C | - | - | 0 mm | 0.89 m/s, 308° | - | - |
| 1778089027 | 31.11° C | - | - | 0 mm | 0.89 m/s, 89° | - | - |
| 1778088785 | 27.78° C | - | - | 0 mm | 0.89 m/s, 60° | - | - |
| 1778088542 | 31.67° C | - | - | 0 mm | 1.34 m/s, 70° | - | - |
| 1778088300 | 31.67° C | - | - | 0 mm | 0 m/s | - | - |
| 1778088058 | 30° C | - | - | 0 mm | 0.45 m/s, 45° | - | - |
| 1778087573 | 29.44° C | - | - | 0 mm | 1.79 m/s, 111° | - | - |
| 1778087331 | 30° C | - | - | 0 mm | 1.79 m/s, 128° | - | - |
| 1778087088 | 29.44° C | - | - | 0 mm | 0.89 m/s, 89° | - | - |
| 1778086846 | 30° C | - | - | 0 mm | 1.79 m/s, 68° | - | - |
| 1778086604 | 30° C | - | - | 0 mm | 0 m/s | - | - |
* Rain latest hour (hover to see other rain measurements)
** Current wind speed in m/s (hover to see current wind gust speed)